Flag for Canada Weather past 2 weeks in Delta, British Columbia, Canada

Now
73 °F

Passing clouds.


Feels Like: 76 °F
Forecast: 64 / 85 °F
Wind: 14 mph from Northwest

Location: Vancouver International Air-Port

Current Time: Jul 2, 2015 at 7:46:15 PM

Latest Report: Jul 2, 2015 at 7:00 PM


Visibility: 30 mi

Pressure: 29.92 "Hg

Humidity: 61%

Dew point: 59 °F

Location of DeltaLocation

Historic Weather in Delta — Graph

°F

Delta temperature yesterday

Maximum temperature yesterday: 75 °F (at 5:00 PM)
Minimum temperature yesterday: 63 °F (at 5:00 AM)
Average temperature yesterday: 69 °F

Past Weeks' High & Low Weather Summary

 TemperatureHumidityPressure
High81 °F (Jun 29, 12:00 PM)94% (Jun 18, 10:00 PM)30.15 "Hg (Jun 18, 10:00 PM)
Low54 °F (Jun 19, 5:00 AM)40% (Jun 23, 9:00 PM)29.87 "Hg (Jun 27, 9:00 PM)
Average67 °F69%30.02 "Hg
* Reported Jun 17 6:00 PM — Jul 2 6:00 PM, Delta, Weather by CustomWeather, © 2015

Note: Actual official high and low records may vary slightly from our data, if they occured in-between our weather recording intervals... More about our weather records

Advertising

Delta weather history for previous 24 hours

 ConditionsComfort  
Time TempWeatherWind HumidityBarometerVisibility
6:00 PM
Thu, Jul 2
75 °FSunny.16 mph57%29.93 "Hg30 mi
5:00 PM75 °FPassing clouds.18 mph57%29.94 "Hg30 mi
4:00 PM75 °FPassing clouds.17 mph57%29.96 "Hg30 mi
3:00 PM75 °FSunny.17 mph57%29.98 "Hg30 mi
2:00 PM75 °FSunny.17 mph57%30.00 "Hg30 mi
1:00 PM73 °FSunny.17 mph65%30.01 "Hg30 mi
12:00 PM72 °FSunny.20 mph65%30.02 "Hg30 mi
11:00 AM70 °FSunny.21 mph69%30.02 "Hg30 mi
10:00 AM70 °FSunny.21 mph64%30.02 "Hg30 mi
9:00 AM68 °FSunny.20 mph69%30.03 "Hg30 mi
8:00 AM66 °FSunny.17 mph78%30.02 "Hg30 mi
7:00 AM66 °FSunny.17 mph78%30.01 "Hg30 mi
6:00 AM64 °FClear.15 mph83%30.00 "Hg30 mi
5:00 AM64 °FPassing clouds.15 mph83%29.99 "Hg30 mi
4:00 AM66 °FPassing clouds.15 mph78%29.98 "Hg30 mi
3:00 AM66 °FPassing clouds.14 mph83%29.97 "Hg30 mi
2:00 AM68 °FPassing clouds.14 mph78%29.96 "Hg30 mi
1:00 AM68 °FClear.16 mph78%29.96 "Hg30 mi
12:00 AM70 °FClear.13 mph73%29.94 "Hg30 mi
11:00 PM
Wed, Jul 1
70 °FClear.13 mph73%29.93 "Hg30 mi
10:00 PM70 °FSunny.13 mph73%29.93 "Hg30 mi
9:00 PM70 °FSunny.13 mph73%29.93 "Hg30 mi
8:00 PM72 °FSunny.13 mph73%29.93 "Hg30 mi
7:00 PM73 °FSunny.14 mph69%29.94 "Hg30 mi
Weather by CustomWeather, © 2015

See weather overviewHow to use our weather pages